When you browse on this site, cookies collect data to enhance your experience and personalize the content and advertising you see.
Visit our Privacy Policy to learn more. By continuing to use the site, you agree to this use of cookies and data.
  • In Portugal
  • List of Countries
  • For 7 days
  • Water Temperature
  • Satellite Maps
  • Weather Map
  • Weather Widgets
  • user-avatar
    Login

    Hourly Weather Parakou

    Today, 18 February, Monday

    Time Temperature Precipitation Wind Pressure Humidity
    00:00 +29°C° 0 mm 1 mps 728 mmHg 15%
    01:00 +29°C° 0 mm 1 mps 728 mmHg 15%
    02:00 +28°C° 0 mm 1 mps 727 mmHg 14%
    03:00 +28°C° 0 mm 1 mps 727 mmHg 14%
    04:00 +27°C° 0 mm 1 mps 727 mmHg 14%
    05:00 +27°C° 0 mm 1 mps 727 mmHg 14%
    06:00 +24°C° 0 mm 0 mps 727 mmHg 14%
    07:00 +29°C° 0 mm 1 mps 728 mmHg 14%
    08:00 +31°C° 0 mm 1 mps 728 mmHg 14%
    09:00 +34°C° 0 mm 1 mps 729 mmHg 13%
    10:00 +36°C° 0 mm 1 mps 728 mmHg 13%
    11:00 +39°C° 0 mm 1 mps 728 mmHg 12%
    12:00 +42°C° 0 mm 1 mps 728 mmHg 12%
    13:00 +43°C° 0 mm 1 mps 727 mmHg 11%
    14:00 +40°C° 0 mm 0 mps 726 mmHg 10%
    15:00 +41°C° 0 mm 0 mps 725 mmHg 10%
    16:00 +39°C° 0 mm 0 mps 725 mmHg 11%
    17:00 +37°C° 0 mm 0 mps 725 mmHg 12%
    18:00 +34°C° 0 mm 0 mps 725 mmHg 13%
    19:00 +35°C° 0 mm 1 mps 725 mmHg 13%
    20:00 +34°C° 0 mm 1 mps 726 mmHg 12%
    21:00 +33°C° 0 mm 1 mps 726 mmHg 12%
    22:00 +32°C° 0 mm 1 mps 726 mmHg 12%
    23:00 +32°C° 0 mm 1 mps 726 mmHg 12%

    Tomorrow, 19 February, Tuesday

    Time Temperature Precipitation Wind Pressure Humidity
    00:00 +31°C° 0 mm 1 mps 726 mmHg 13%
    01:00 +30°C° 0 mm 1 mps 726 mmHg 14%
    02:00 +29°C° 0 mm 1 mps 726 mmHg 15%
    03:00 +28°C° 0 mm 1 mps 726 mmHg 16%
    04:00 +28°C° 0 mm 1 mps 726 mmHg 21%
    05:00 +27°C° 0 mm 1 mps 726 mmHg 27%
    06:00 +25°C° 0 mm 0 mps 726 mmHg 33%
    07:00 +29°C° 0 mm 1 mps 727 mmHg 32%
    08:00 +32°C° 0 mm 1 mps 728 mmHg 31%
    09:00 +35°C° 0 mm 1 mps 728 mmHg 29%
    10:00 +37°C° 0 mm 1 mps 728 mmHg 23%
    11:00 +40°C° 0 mm 1 mps 727 mmHg 17%
    12:00 +42°C° 0 mm 2 mps 727 mmHg 11%
    13:00 +42°C° 0 mm 2 mps 726 mmHg 9%
    14:00 +43°C° 0 mm 1 mps 725 mmHg 8%
    15:00 +43°C° 0 mm 1 mps 724 mmHg 7%
    16:00 +41°C° 0 mm 1 mps 724 mmHg 8%
    17:00 +39°C° 0 mm 1 mps 724 mmHg 8%
    18:00 +37°C° 0 mm 1 mps 724 mmHg 9%
    19:00 +35°C° 0 mm 1 mps 724 mmHg 9%
    20:00 +34°C° 0 mm 1 mps 725 mmHg 9%
    21:00 +33°C° 0 mm 1 mps 726 mmHg 10%
    22:00 +32°C° 0 mm 1 mps 726 mmHg 10%
    23:00 +31°C° 0 mm 1 mps 726 mmHg 11%

    Day after tomorrow, 20 February, Wednesday

    Time Temperature Precipitation Wind Pressure Humidity
    00:00 +28°C° 0 mm 0 mps 726 mmHg 11%
    01:00 +30°C° 0 mm 1 mps 725 mmHg 19%
    02:00 +29°C° 0 mm 1 mps 725 mmHg 27%
    03:00 +29°C° 0 mm 2 mps 725 mmHg 35%
    04:00 +28°C° 0 mm 2 mps 725 mmHg 48%
    05:00 +28°C° 0 mm 1 mps 726 mmHg 60%
    06:00 +28°C° 0 mm 1 mps 726 mmHg 73%
    07:00 +29°C° 0 mm 2 mps 727 mmHg 66%
    08:00 +31°C° 0 mm 2 mps 727 mmHg 60%
    09:00 +34°C° 0 mm 2 mps 728 mmHg 53%
    10:00 +36°C° 0 mm 1 mps 728 mmHg 41%
    11:00 +41°C° 0 mm 1 mps 727 mmHg 30%
    12:00 +41°C° 0 mm 0 mps 727 mmHg 18%
    13:00 +41°C° 0 mm 0 mps 726 mmHg 16%
    14:00 +42°C° 0 mm 0 mps 725 mmHg 14%
    15:00 +42°C° 0 mm 0 mps 724 mmHg 12%
    16:00 +40°C° 0 mm 0 mps 724 mmHg 13%
    17:00 +38°C° 0 mm 0 mps 724 mmHg 14%
    18:00 +36°C° 0 mm 0 mps 724 mmHg 15%
    19:00 +35°C° 0 mm 0 mps 725 mmHg 16%
    20:00 +36°C° 0 mm 1 mps 726 mmHg 16%
    21:00 +35°C° 0 mm 1 mps 726 mmHg 17%
    22:00 +34°C° 0 mm 1 mps 727 mmHg 18%
    23:00 +34°C° 0 mm 2 mps 727 mmHg 20%

    21 February, Thursday

    Time Temperature Precipitation Wind Pressure Humidity
    00:00 +32°C° 0 mm 2 mps 727 mmHg 22%
    01:00 +31°C° 0 mm 3 mps 726 mmHg 38%
    02:00 +30°C° 0 mm 3 mps 726 mmHg 54%
    03:00 +29°C° 0 mm 3 mps 726 mmHg 71%
    04:00 +29°C° 0 mm 3 mps 726 mmHg 71%
    05:00 +28°C° 0 mm 2 mps 727 mmHg 70%
    06:00 +28°C° 0 mm 2 mps 727 mmHg 70%
    07:00 +29°C° 0 mm 2 mps 728 mmHg 65%
    08:00 +31°C° 0 mm 2 mps 728 mmHg 60%
    09:00 +34°C° 0 mm 3 mps 729 mmHg 55%
    10:00 +36°C° 0 mm 2 mps 729 mmHg 45%
    11:00 +39°C° 0 mm 2 mps 728 mmHg 35%
    12:00 +42°C° 0 mm 1 mps 728 mmHg 25%
    13:00 +42°C° 0 mm 1 mps 727 mmHg 23%
    14:00 +43°C° 0 mm 1 mps 726 mmHg 20%
    15:00 +43°C° 0 mm 1 mps 725 mmHg 17%
    16:00 +42°C° 0 mm 1 mps 725 mmHg 19%
    17:00 +40°C° 0 mm 1 mps 726 mmHg 20%
    18:00 +39°C° 0 mm 2 mps 726 mmHg 22%
    19:00 +38°C° 0 mm 2 mps 726 mmHg 25%
    20:00 +35°C° 0 mm 1 mps 727 mmHg 28%
    21:00 +34°C° 0 mm 1 mps 728 mmHg 32%
    22:00 +34°C° 0 mm 1 mps 728 mmHg 34%
    23:00 +33°C° 0 mm 1 mps 728 mmHg 36%

    22 February, Friday

    Time Temperature Precipitation Wind Pressure Humidity
    00:00 +32°C° 0 mm 2 mps 727 mmHg 38%
    01:00 +32°C° 0 mm 2 mps 727 mmHg 47%
    02:00 +31°C° 0 mm 3 mps 727 mmHg 55%
    03:00 +30°C° 0 mm 4 mps 726 mmHg 64%
    04:00 +29°C° 0 mm 3 mps 727 mmHg 67%
    05:00 +29°C° 0 mm 2 mps 727 mmHg 70%
    06:00 +28°C° 0 mm 1 mps 727 mmHg 73%
    07:00 +29°C° 0 mm 2 mps 728 mmHg 68%
    08:00 +31°C° 0 mm 2 mps 728 mmHg 63%
    09:00 +33°C° 0 mm 3 mps 729 mmHg 58%
    10:00 +35°C° 0 mm 2 mps 728 mmHg 49%
    11:00 +37°C° 0 mm 2 mps 728 mmHg 40%
    12:00 +40°C° 0 mm 2 mps 727 mmHg 31%
    13:00 +41°C° 0 mm 1 mps 726 mmHg 26%
    14:00 +42°C° 0 mm 1 mps 726 mmHg 22%
    15:00 +43°C° 0 mm 1 mps 725 mmHg 17%
    16:00 +42°C° 0 mm 1 mps 725 mmHg 18%
    17:00 +40°C° 0 mm 1 mps 725 mmHg 20%
    18:00 +37°C° 0 mm 1 mps 725 mmHg 21%
    19:00 +36°C° 0 mm 1 mps 726 mmHg 24%
    20:00 +35°C° 0 mm 1 mps 726 mmHg 27%
    21:00 +35°C° 0 mm 2 mps 727 mmHg 30%
    22:00 +35°C° 0 mm 2 mps 727 mmHg 38%
    23:00 +34°C° 0 mm 2 mps 727 mmHg 45%

    23 February, Saturday

    Time Temperature Precipitation Wind Pressure Humidity
    00:00 +32°C° 0 mm 2 mps 727 mmHg 53%
    01:00 +31°C° 0 mm 2 mps 726 mmHg 56%
    02:00 +31°C° 0 mm 2 mps 726 mmHg 60%
    03:00 +30°C° 0 mm 2 mps 726 mmHg 64%
    04:00 +29°C° 0 mm 2 mps 726 mmHg 67%
    05:00 +29°C° 0 mm 2 mps 726 mmHg 70%
    06:00 +28°C° 0 mm 1 mps 727 mmHg 73%
    07:00 +30°C° 0 mm 2 mps 727 mmHg 68%
    08:00 +31°C° 0 mm 2 mps 728 mmHg 62%
    09:00 +32°C° 0 mm 2 mps 728 mmHg 56%
    10:00 +37°C° 0 mm 2 mps 728 mmHg 44%
    11:00 +40°C° 0 mm 1 mps 727 mmHg 32%
    12:00 +41°C° 0 mm 0 mps 727 mmHg 21%
    13:00 +41°C° 0 mm 0 mps 726 mmHg 19%
    14:00 +41°C° 0 mm 0 mps 725 mmHg 17%
    15:00 +41°C° 0 mm 0 mps 724 mmHg 16%
    16:00 +39°C° 0 mm 0 mps 724 mmHg 17%
    17:00 +37°C° 0 mm 0 mps 724 mmHg 19%
    18:00 +36°C° 0 mm 0 mps 724 mmHg 20%
    19:00 +37°C° 0 mm 1 mps 725 mmHg 21%
    20:00 +36°C° 0 mm 1 mps 725 mmHg 23%
    21:00 +35°C° 0 mm 1 mps 726 mmHg 24%
    22:00 +35°C° 0.1 mm 1 mps 726 mmHg 27%
    23:00 +34°C° 0.1 mm 1 mps 726 mmHg 30%
    Show more